Flag for Germany Weather past 2 weeks in Königswinter, North Rhine-Westphalia, Germany

Now
49 °F

Partly sunny.


Feels Like: 46 °F
Forecast: 34 / 63 °F
Wind: 6 mph from North

Location: Bonn-Hangelar


UV Index: 0 (Low)

Visibility: 38 mi


Pressure: 29.98 "Hg

Humidity: 60%

Dew point: 35 °F

Location of KönigswinterLocation

Historic Weather in Königswinter

°F

Königswinter temperature yesterday

Maximum temperature yesterday: 62 °F (at 6:00 PM)
Minimum temperature yesterday: 38 °F (at 6:00 AM)
Average temperature yesterday: 51 °F

Past Weeks' High & Low Weather Summary

 TemperatureHumidityPressure
High67 °F (Apr 7, 5:00 PM)99% (Apr 12, 9:00 AM)30.44 "Hg (Apr 12, 9:00 AM)
Low32 °F (Apr 16, 6:00 AM)29% (Apr 17, 4:00 PM)29.65 "Hg (Apr 3, 8:00 PM)
Average50 °F73%30.09 "Hg
* Reported Apr 3 8:00 PM — Apr 18 8:00 PM, Königswinter, Weather by CustomWeather, © 2014

Note: Actual official high and low records may vary slightly from our data, if they occured in-between our weather recording intervals... More about our weather records

Advertising

Historic Weather Conditions — Data for Previous 24 hours

 ConditionsComfort  
Time TempWeatherWind HumidityBarometerVisibility
8:00 PM
Apr 18
49 °FPartly sunny.6 mph60%29.98 "Hg37 mi
7:00 PM50 °FPartly sunny.6 mph57%29.98 "Hg37 mi
6:00 PM49 °FPartly sunny.6 mph53%29.98 "Hg37 mi
5:00 PM51 °FPartly sunny.7 mph45%29.98 "Hg37 mi
4:00 PM50 °FPartly sunny.6 mph55%29.99 "Hg37 mi
3:00 PM50 °FScattered clouds.6 mph57%29.99 "Hg37 mi
2:00 PM51 °FScattered clouds.7 mph54%29.99 "Hg31 mi
1:00 PM50 °FPartly sunny.8 mph61%29.99 "Hg22 mi
12:00 PM46 °FPartly sunny.6 mph66%30.00 "Hg22 mi
11:00 AM46 °FOvercast.7 mph72%29.99 "Hg19 mi
10:00 AM44 °FPartly sunny.7 mph80%29.99 "Hg16 mi
9:00 AM44 °FScattered clouds.6 mph80%29.98 "Hg11 mi
8:00 AM41 °FPassing clouds.3 mph94%29.98 "Hg7 mi
7:00 AM39 °FFog.2 mph96%29.96 "Hg4 mi
6:00 AM42 °FPassing clouds.3 mph95%29.96 "Hg6 mi
5:00 AM44 °FLow clouds.3 mph97%29.95 "Hg8 mi
4:00 AM45 °FLow clouds.2 mph97%29.95 "Hg8 mi
3:00 AM45 °FLow clouds.3 mph95%29.95 "Hg7 mi
2:00 AM47 °FLight rain. Low clouds.6 mph94%29.96 "Hg6 mi
Weather by CustomWeather, © 2014

See weather overview